{"data":{"norad_id":37180,"intl_designator":"2010-051B","name":"SHIJIAN-6 04B (SJ-6 04B)","alt_names":[],"object_type":"PAYLOAD","status":"ACTIVE","operator":null,"country":"PRC","launch_date":"2010-10-06","launch_site_code":"TAISC","launch_vehicle":null,"mission":null,"orbit_class":"UNKNOWN","rcs_meters":2.447,"size_class":null,"mass_kg":null,"dimensions":null,"purposes":[],"wikipedia_slug":null,"has_3d_model":false,"image_url":null,"decayed_at":null,"tle_current":{"epoch":"2026-09-20T04:28:56.685216Z","epoch_age_seconds":52895,"freshness":"FRESH","line1":"1 37180U 10051B   26263.18676719  .00000500  00000+0  45791-4 0  9994","line2":"2 37180  97.8784 269.6203 0012414   8.2985 351.8441 14.99482976869914","mean_motion":14.99482976,"eccentricity":0.0012414,"inclination_deg":97.8784,"raan_deg":269.6203,"arg_perigee_deg":8.2985,"mean_anomaly_deg":351.8441,"bstar":4.5791e-5,"rev_number":86991,"period_min":96.033100945322,"perigee_km":559.86914649859,"apogee_km":577.11623869938,"semimajor_km":6946.629692599,"source":"CELESTRAK","updated_at":"2026-09-20T09:00:13.792621Z"}}}